Location: Mount Tamalpais State Park
(37.9108°N, 122.6128°W)
Time: 20:27:23
(UTC-07:00)

Daily predictions for brighter satellites

Satellite Brightness Start Highest point End
(mag) Time Altitude Azimuth Time Altitude Azimuth Time Altitude Azimuth
Cosmos 1605 Rocket 4.1 19:48:13 10° SSE 19:54:19 56° E 20:00:31 10° NNE
COSMOS 2487 3.9 19:54:34 10° NNE 19:57:17 20° ENE 20:00:01 10° ESE
Cosmos 1271 Rocket 4.3 19:56:22 10° SE 19:59:01 17° E 20:01:40 10° NE
Meteor 1-24 Rocket 3.9 19:54:46 10° N 20:00:21 85° W 20:06:07 10° S
Cosmos 1758 3.7 19:57:06 10° SSE 20:00:49 40° E 20:04:34 10° NNE
Cosmos 1953 2.7 20:03:14 10° SSE 20:07:06 44° E 20:10:58 10° NNE
Cosmos 1674 3.9 20:04:44 10° NNE 20:07:45 22° ENE 20:10:45 10° SE
Cosmos 372 Rocket 4.2 20:03:50 10° S 20:08:41 46° ESE 20:13:35 10° NNE
Cosmos 1766 4.0 20:05:06 10° SSW 20:08:54 58° W 20:12:46 10° N
Cosmos 1818 3.6 20:03:47 10° NNW 20:09:12 63° ENE 20:14:33 10° SE
Cosmos 1269 Rocket 4.5 20:04:37 10° N 20:09:37 41° ENE 20:14:36 10° SE
BREEZE-M DEB (TANK) 3.0 20:08:27 10° SSW 20:11:07 41° SE 20:17:50 10° ENE
Cosmos 2123 Rocket 4.0 20:04:50 10° N 20:11:11 85° E 20:17:27 10° S
Lacrosse 5 3.7 20:07:30 10° W 20:11:59 31° NW 20:16:29 10° NNE
Cosmos 468 4.5 20:08:56 10° NNW 20:14:09 68° ENE 20:19:22 10° SSE
Resurs 1-3 4.0 20:10:02 10° SE 20:14:10 43° ENE 20:18:19 10° N
Cosmos 1408 Rocket 4.4 20:10:59 10° NNE 20:14:59 31° ENE 20:18:57 10° SE
Meteor 1-4 Rocket 2.4 20:12:53 10° S 20:16:19 63° E 20:19:46 10° NNE
Helios 1B rocket 3.3 20:18:12 10° NE 20:21:46 28° E 20:25:18 10° SSE
USA 215 4.1 20:20:25 10° ENE 20:25:48 27° SE 20:31:07 10° S
CZ-3B DEB 4.4 20:15:58 10° WSW 20:26:30 39° NW 20:31:43 10° NNE
Lacrosse 5 rocket 2.4 20:24:38 10° NNW 20:28:01 27° NE 20:29:53 18° E
Cosmos 1544 3.5 20:25:46 10° SSW 20:29:22 65° W 20:33:02 10° N
SWAS 4.3 20:27:45 10° SSW 20:32:01 78° ESE 20:36:21 10° NNE
Spot 2 Rocket 3.4 20:28:08 10° SSE 20:33:14 78° ENE 20:38:22 10° N
CZ-2D R/B 3.2 20:30:10 10° SSE 20:33:59 62° ENE 20:37:50 10° N
Cosmos 1076 Rocket 3.4 20:30:23 10° N 20:34:38 77° E 20:38:52 10° S
Cosmos 2098 Rocket 4.4 20:27:25 10° S 20:34:42 83° E 20:42:19 10° N
Abrixas 3.0 20:34:03 10° WNW 20:36:48 48° SW 20:38:13 23° SSE
Cosmos 1805 4.1 20:33:44 10° SSW 20:37:32 52° W 20:41:22 10° N
Cosmos 2061 Rocket 4.3 20:33:40 10° SSE 20:39:43 47° E 20:45:49 10° NNE
Okean 3 Rocket 4.3 20:35:44 10° NNW 20:40:03 56° W 20:44:23 10° S
Tiangong 1 3.9 20:40:29 10° SW 20:41:04 10° SW 20:41:38 10° SSW
Helios 1A 3.2 20:39:35 18° SE 20:42:26 48° ENE 20:46:29 10° N
Cosmos 1459 Rocket 4.1 20:37:52 10° SSE 20:43:55 54° E 20:49:55 10° NNE
Cosmos 1867 4.3 20:38:41 10° SW 20:44:01 57° WNW 20:49:26 10° NNE
ALOS 3.5 20:41:51 10° S 20:46:17 43° W 20:50:45 10° NNW
Timation 2 Rocket 3.9 20:40:24 10° NNW 20:46:40 69° ENE 20:51:22 17° SE
Cosmos 1447 Rocket 4.5 20:42:01 10° N 20:48:12 88° W 20:54:21 10° S
Envisat 3.4 20:48:55 24° SE 20:51:29 42° ENE 20:56:16 10° N
Cosmos 2173 Rocket 3.9 20:46:13 10° S 20:52:17 63° E 20:58:28 10° NNE
GPS 2-05 Rocket1 3.0 20:49:26 10° WSW 20:52:57 60° S 20:53:50 43° ESE
Cosmos 1733 3.1 20:49:33 10° S 20:53:24 76° E 20:57:17 10° N
Cosmos 1833 Rocket 2.6 20:48:04 10° NNW 20:53:43 87° ENE 20:58:20 16° SSE
DASH 4.1 20:38:07 10° WSW 20:54:03 41° SSW 20:56:27 25° SE
Cosmos 1470 2.7 20:51:45 10° S 20:55:43 86° E 20:59:42 10° N
Spot 1 4.2 20:56:39 17° SSE 21:00:17 81° ENE 21:05:15 10° N
USA 186 2.2 21:01:12 37° NNW 21:01:12 37° NNW 21:02:43 10° NNW
SeaSat 1 3.3 20:56:09 10° S 21:00:54 50° WSW 21:05:42 10° NW
Cosmos-2242 3.1 20:57:07 10° S 21:01:20 78° W 21:05:37 10° N
Cosmos 1766 Rocket 3.8 20:57:37 10° NNW 21:02:06 73° W 21:06:32 10° S
ERS-1 Rocket 3.8 21:03:15 29° ENE 21:03:36 29° ENE 21:07:56 10° N
CZ-4B DEB 4.4 21:03:19 48° SSE 21:04:11 74° ENE 21:07:46 10° N
ATLAS 5 CENTAUR R/B 2.5 20:59:44 10° SW 21:04:18 54° NW 21:09:16 10° NNE
GP-B 3.3 21:01:23 10° S 21:05:48 74° W 21:10:15 10° N
CZ-4B DEB 2.9 21:06:15 56° NNE 21:06:15 56° NNE 21:08:55 10° N
Geosat 4.0 21:00:48 10° NNE 21:05:50 82° WNW 21:10:52 10° SSW
Cosmos 1356 Rocket 4.2 21:03:30 10° N 21:06:40 33° NE 21:06:40 33° NE
OAO 2 Rocket 3.9 21:03:47 10° SW 21:08:35 39° SSE 21:09:17 37° SE
Cosmos 1340 Rocket 2.7 21:08:31 10° N 21:12:33 86° W 21:13:50 42° S
Resurs 01 Rocket 3.4 21:11:26 10° SSW 21:15:21 31° W 21:19:19 10° NW
ISS -1.9 21:13:51 10° W 21:16:43 28° NNW 21:18:08 20° N
Meteor 1-29 3.5 21:18:42 10° N 21:22:07 58° WNW 21:24:20 20° SSW
Cosmos 2016 Rocket 3.8 21:18:15 10° S 21:24:28 82° E 21:30:39 10° N
YAOGAN 6 4.4 21:33:14 24° NNE 21:33:14 24° NNE 21:34:56 10° N
Cosmos 1743 Rocket 3.7 21:28:47 10° NNW 21:33:14 72° W 21:34:05 55° SSW
Cosmos 2082 Rocket 3.5 21:28:55 10° NW 21:34:04 37° WSW 21:38:32 13° SSW
Cosmos 1500 Rocket 3.5 21:29:51 10° N 21:33:45 71° NNE 21:33:45 71° NNE
Cosmos 1725 Rocket 3.9 21:31:58 40° SSE 21:34:14 67° E 21:40:23 10° NNE
SL-14 R/B 4.1 21:31:06 10° N 21:33:47 43° N 21:33:47 43° N
ARGOS 4.4 21:36:46 26° NE 21:36:46 26° NE 21:40:04 10° N
Cosmos 2058 4.4 21:35:50 10° N 21:37:52 26° NNE 21:37:52 26° NNE
Cosmos 1328 4.4 21:38:30 10° NNW 21:41:41 53° NW 21:41:41 53° NW
Meteor 1-16 Rocket 4.4 21:38:26 10° SSW 21:44:16 75° W 21:50:13 10° N
Meteor 1-11 4.0 21:40:32 10° N 21:46:08 83° E 21:46:29 78° SE
Cosmos 2251 Rocket 3.5 21:44:10 10° NNW 21:49:31 82° WSW 21:49:45 79° SSW
Cosmos 1939 Rocket 4.0 21:54:46 43° W 21:54:46 43° W 21:58:32 10° NNW
Cosmos 2151 4.1 21:52:33 10° N 21:55:16 38° NNW 21:55:16 38° NNW
Tsikada Rocket 3.8 21:52:17 10° N 21:58:33 86° E 21:58:55 80° SSE
SPOT 5 4.0 22:01:23 40° NNE 22:01:23 40° NNE 22:04:58 10° N
Lacrosse 5 rocket 3.5 22:03:51 10° WNW 22:05:37 21° W 22:05:37 21° W
Meteor 2-1 Rocket 4.4 22:08:08 71° NNW 22:08:08 71° NNW 22:13:14 10° N
USA 215 3.3 22:02:35 10° NE 22:09:06 75° NW 22:15:37 10° SW
Cosmos 2369 Rocket 3.5 22:25:00 33° N 22:25:00 33° N 22:28:03 10° NNE
USA 267 4.1 22:40:51 39° NNE 22:40:51 39° NNE 22:46:10 10° NNW
H-2A R/B 4.0 22:52:16 25° N 22:52:16 25° N 22:54:21 10° NNW
